Weather History for 62460 - August, 2013

Change the Weather History Date:

Wednesday, August 28, 2013

  Actual Average Record
Temperature  
Mean Temperature 93 °F -  
Max Temperature 104 °F 96 °F - ()
Min Temperature 82 °F 79 °F - ()
Cooling Degree Days 28    
Growing Degree Days 43 (Base 50)    
Moisture  
Dew Point 61 °F    
Average Humidity 38    
Maximum Humidity 62    
Minimum Humidity 21    
Precipitation  
Precipitation 0.00 in 0.00 in - ()
Sea Level Pressure  
Sea Level Pressure 29.67 in    
Wind  
Wind Speed 7 mph ()    
Max Wind Speed 16 mph    
Max Gust Speed -    
T = Trace of Precipitation, MM = Missing Value Source: Averaged Metar Reports

Daily Weather History Graph

Daily Weather History Graph

Search for Another Location

Airport or City:

Trip Planner

Search our weather history database for the weather conditions in past years. The results will help you decide how hot, cold, wet, or windy it might be!

Date:

Astronomy

Aug. 28, 2013 Rise Set
Actual Time 5:19 AM EET 6:07 PM EET
Civil Twilight 4:55 AM EET 6:31 PM EET
Nautical Twilight 4:26 AM EET 6:59 PM EET
Astronomical Twilight 3:57 AM EET 7:28 PM EET
Moon 11:09 PM EET (8/28) 12:13 PM EET (8/28)
Length of Visible Light 13h 36m
Length of Day
12h 48m
Waning Gibbous, 50% of the Moon is Illuminated
Aug 28
Waning Gibbous
Sep 5
New
Sep 12
First Quarter
Sep 19
Full
Sep 27
Last Quarter

Hourly Weather History & Observations

Time (EET) Temp. Heat Index Dew Point Humidity Pressure Visibility Wind Dir Wind Speed Gust Speed Precip Events Conditions
12:00 AM 86.0 °F 84.9 °F 57.2 °F 37% 29.65 in - Calm Calm - N/A   Clear
1:00 AM 86.0 °F 87.3 °F 64.4 °F 48% 29.65 in - North 8.1 mph - N/A   Clear
2:00 AM 84.2 °F 83.5 °F 57.2 °F 40% 29.65 in - North 12.7 mph - N/A   Clear
3:00 AM 84.2 °F 86.6 °F 66.2 °F 55% 29.65 in - North 10.4 mph - N/A   Clear
4:00 AM 82.4 °F 84.6 °F 66.2 °F 58% 29.65 in - North 11.5 mph - N/A   Clear
5:00 AM 82.4 °F 84.6 °F 66.2 °F 58% 29.68 in - North 9.2 mph - N/A   Clear
6:00 AM 82.4 °F 85.4 °F 68.0 °F 62% 29.71 in - North 11.5 mph - N/A   Clear
7:00 AM 86.0 °F 89.4 °F 68.0 °F 55% 29.71 in - North 13.8 mph - N/A   Clear
8:00 AM 87.8 °F 90.4 °F 66.2 °F 49% 29.71 in - NNE 16.1 mph - N/A   Clear
9:00 AM 89.6 °F 91.1 °F 64.4 °F 43% 29.71 in - NNE 15.0 mph - N/A   Clear
10:00 AM 91.4 °F 93.2 °F 64.4 °F 41% 29.71 in - NNE 11.5 mph - N/A   Clear
11:00 AM 95.0 °F 95.2 °F 60.8 °F 32% 29.71 in - NE 9.2 mph - N/A   Clear
12:00 PM 98.6 °F 100.0 °F 62.6 °F 30% 29.68 in - NE 8.1 mph - N/A   Clear
1:00 PM 102.2 °F 103.6 °F 60.8 °F 26% 29.68 in - Variable 2.3 mph - N/A   Clear
2:00 PM 104.0 °F 103.4 °F 57.2 °F 21% 29.68 in - Variable 3.5 mph - N/A   Clear
3:00 PM 104.0 °F 103.4 °F 57.2 °F 21% 29.65 in - ESE 5.8 mph - N/A   Clear
4:00 PM 102.2 °F 101.4 °F 57.2 °F 22% 29.65 in - SE 4.6 mph - N/A   Clear
5:00 PM 100.4 °F 99.7 °F 57.2 °F 24% 29.65 in - Variable 2.3 mph - N/A   Clear
6:00 PM 93.2 °F 92.6 °F 59.0 °F 32% 29.65 in - Variable 2.3 mph - N/A   Clear
7:00 PM 91.4 °F 90.7 °F 59.0 °F 34% 29.65 in - Variable 3.5 mph - N/A   Clear
8:00 PM 91.4 °F 89.4 °F 55.4 °F 29% 29.65 in - WSW 3.5 mph - N/A   Clear
9:00 PM 91.4 °F - 48.2 °F 23% 29.68 in - North 5.8 mph - N/A   Clear
10:00 PM 91.4 °F 89.4 °F 55.4 °F 29% 29.68 in - North 12.7 mph - N/A   Clear
11:00 PM 87.8 °F 87.1 °F 59.0 °F 38% 29.68 in - NNE 5.8 mph - N/A   Clear